Terug naar catalogus

FENGYUN 1C DEB

ActiefSSO
NORAD 31246·DEBRIS·🇨🇳 China

Gelanceerd May 10, 1999 vanaf Taiyuan Satellite Launch Center

Loading…

Volgende Passages (komende 24 uur)

TLE

VerouderendSource: Space-Track

Epoch: Sep 8, 2026, 08:36 UTC

1 31246U 99025BMC 26251.35886673  .00002392  00000-0  12802-2 0  9994
2 31246  98.7949  97.0281 0144120 304.6152  54.1496 14.08908293655474

Volg FENGYUN 1C DEB in realtime met AllMySat

Download on the App Store